Location: Griffin Ranch
(33.6186°N, 110.6622°W)
Time: 12:48:51
(UTC-07:00)

Daily predictions for brighter satellites

Satellite Brightness Start Highest point End
(mag) Time Altitude Azimuth Time Altitude Azimuth Time Altitude Azimuth
USA 234 4.5 17:33:02 10° NNE 17:38:47 34° NW 17:44:30 10° W
Thor Agena Rocket 3.6 17:34:09 10° NNE 17:39:22 76° ESE 17:44:37 10° S
Cosmos 1812 3.9 17:39:01 10° SE 17:42:03 22° E 17:45:06 10° NE
Cosmos 1269 Rocket 4.0 17:39:29 10° NNW 17:44:47 75° ENE 17:50:05 10° SSE
NOSS 3-1 (A) 4.1 17:38:44 10° NNW 17:46:35 83° ENE 17:55:01 10° SSE
YAOGAN 1 2.7 17:43:14 10° SSE 17:47:26 54° ENE 17:51:41 10° N
Cosmos 1633 3.4 17:46:25 10° NNW 17:49:57 55° W 17:53:26 10° S
OTV 4 1.0 17:49:34 10° WNW 17:52:27 42° N 17:55:03 12° E
FALCON 9 R/B 4.5 17:17:56 10° WSW 17:53:59 73° SSE 18:01:52 11° E
Cosmos 2251 Rocket 4.5 17:50:27 10° N 17:54:53 26° ENE 17:59:16 10° ESE
SL-8 Rocket 4.0 17:50:35 10° N 17:56:39 58° E 18:02:41 10° SSE
Cosmos 1975 4.3 17:54:38 10° NE 17:57:17 17° ENE 17:59:55 10° ESE
ATLAS 2AS CENTAUR R/B 3.6 17:51:18 10° NNW 17:58:30 34° NE 18:05:15 10° ESE
Cosmos 1844 Rocket 2.7 17:55:37 10° SSW 18:01:11 85° WNW 18:06:49 10° NNE
Cosmos 2181 Rocket 4.4 17:55:37 10° SSW 18:01:53 70° W 18:08:16 10° N
MOS 1 4.4 17:57:02 10° SSE 18:02:43 86° WSW 18:08:24 10° NNW
SL-27 R/B 3.4 18:01:48 10° N 18:04:59 27° ENE 18:08:08 10° SE
Cosmos 2366 rocket 4.2 18:00:03 10° N 18:06:12 50° E 18:12:16 10° SSE
Cosmos 2218 Rocket 4.0 18:00:30 10° N 18:06:42 58° E 18:12:47 10° SSE
Cosmos 1844 3.6 18:02:51 10° SSW 18:08:25 80° ESE 18:13:59 10° NNE
ISS -1.7 18:05:47 10° W 18:08:41 28° NW 18:11:30 11° NNE
GEOS 3 Rocket 4.2 18:06:03 10° ESE 18:10:37 34° NE 18:15:13 10° NNW
SKYMED 2 3.7 18:07:20 10° NNE 18:11:36 53° E 18:15:49 10° S
Cosmos 1959 Rocket 4.4 18:07:03 10° N 18:13:12 66° E 18:19:22 10° SSE
SL-8 R/B 3.7 18:08:51 10° SW 18:13:35 71° SE 18:17:04 18° ENE
Cosmos 1455 Rocket 3.3 18:10:39 10° N 18:14:54 46° E 18:19:09 10° SSE
ATLAS 3B CENTAUR R/B 4.3 17:53:46 10° WSW 18:15:23 58° S 18:22:04 14° E
Meteor 2-19 Rocket 4.3 18:12:02 10° N 18:18:07 78° E 18:24:09 10° S
CORIOLIS 4.5 18:15:03 10° S 18:20:27 72° WSW 18:25:52 10° NNW
Cosmos 2278 Rocket 2.1 18:21:08 10° S 18:26:43 68° ESE 18:31:58 12° NNE
CZ-3B DEB 2.6 18:23:43 10° WSW 18:27:00 47° NW 18:34:11 12° NE
Cosmos 158 Rocket 4.3 18:23:08 10° NNW 18:28:28 70° WSW 18:33:38 10° S
Cosmos 1484 Rocket 2.6 18:25:08 10° SSE 18:28:55 70° ENE 18:32:39 10° N
MONITOR-E 4.3 18:25:44 10° S 18:28:55 78° W 18:32:07 10° NNW
COSMOS 2406 3.5 18:24:01 10° NNW 18:29:43 71° WSW 18:35:25 10° S
CZ-2C R/B 3.8 18:28:25 10° S 18:33:01 42° W 18:37:46 10° NNW
Tiangong 1 2.2 18:35:44 10° SSW 18:38:20 28° SE 18:38:20 28° SE
Cosmos 1238 Rocket 3.8 18:37:40 10° SSW 18:40:30 34° W 18:43:14 10° NNW
OAO 1 4.5 18:37:23 10° W 18:42:52 84° N 18:45:19 34° ENE
Okean 1 3.8 18:45:34 10° SSW 18:49:33 62° W 18:53:34 10° N
IDEFIX/ARIANE 42P 4.5 18:45:15 10° SSW 18:49:48 31° W 18:54:23 10° NW
Cosmos 2082 Rocket 4.0 18:51:27 10° N 18:52:45 15° NNE 18:52:45 15° NNE
Nadezhda 3 Rocket 3.8 18:51:14 10° S 18:57:23 79° E 19:03:38 10° N
COSMO-SKYMED 1 3.9 18:55:31 10° N 18:59:33 38° WNW 19:03:33 10° SW
Hubble Space Telescope 3.0 18:57:16 10° WSW 19:00:19 20° SSW 19:02:26 14° SSE
Cosmos 1500 3.1 19:03:20 50° NNW 19:04:16 85° W 19:08:06 10° S
Meteor 1-28 Rocket 4.0 19:04:52 25° NNW 19:06:48 50° WNW 19:10:28 10° SSW
Meteor 2-21 4.4 19:03:53 10° N 19:10:06 90° SE 19:16:13 10° S
Meteor 2-4 Rocket 4.2 19:06:06 10° SSE 19:09:55 39° SE 19:09:55 39° SE
Cosmos 1346 Rocket 3.6 19:09:05 10° SSW 19:12:54 49° W 19:14:09 35° NNW
METEOR-M 4.0 19:11:51 10° SSE 19:17:11 85° ENE 19:22:33 10° N
NOAA 12 4.2 19:14:32 10° S 19:19:49 76° WSW 19:25:07 10° NNW
OTV 4 3.6 19:26:03 10° WNW 19:26:41 15° W 19:26:41 15° W
Meteor 2-14 Rocket 4.5 19:28:48 10° N 19:34:57 78° W 19:41:04 10° S
ATLAS 2AS CENTAUR R/B 3.7 19:42:08 10° NW 19:49:44 51° WSW 19:56:45 10° S
